Wetbulb
69.28 68.76 69.18 70.09 70.22 69.62 69.84 69.79 70.19 70.34 69.72 69.16 68.38 68.19 68.87 69.11 68.42 67.71 67.90 66.13 68.09 67.67 68.76 69.16 69.35 69.51 70.42 70.59 70.28 70.17 69.70 69.43 68.92
69.50 68.69 68.79 69.46 69.43 69.54 69.54 69.35 69.74 70.00 69.92 69.71 69.22 69.10 69.02 67.58 67.23 65.51 64.93 65.22 67.48 67.13 66.56 66.23 67.60 68.75 68.82 69.35 69.93 69.77 69.43 68.93 68.41
70.07 68.94 68.78 68.86 69.30 69.30 69.10 69.03 68.80 69.67 69.50 69.17 68.82 68.75 67.69 65.55 63.75 64.36 64.81 68.23 67.36 66.84 66.25 65.49 65.50 66.80 67.53 67.49 67.30 67.70 68.14 67.67 66.86
70.59 69.83 68.95 68.90 68.78 68.85 68.62 68.47 68.18 67.84 68.39 68.25 67.93 67.65 67.10 63.56 63.42 65.40 64.67 68.29 67.14 66.32 65.65 65.12 64.72 64.77 64.80 65.59 66.01 65.99 66.12 65.85 65.55
70.79 70.00 69.87 69.08 68.68 68.69 68.48 68.13 67.89 67.28 66.41 65.85 66.32 65.48 65.46 63.03 63.77 64.46 64.95 67.59 66.82 65.94 65.07 64.66 64.16 63.88 63.62 63.80 63.98 64.08 64.26 64.49 64.32
68.15 68.03 68.77 69.42 69.12 68.18 68.20 68.21 67.84 67.28 66.20 66.02 65.34 64.73 62.26 62.78 63.27 63.99 67.98 67.27 66.60 65.80 64.82 64.19 63.77 63.31 62.74 62.65 62.84 62.70 62.89 63.26 63.07
67.95 66.43 67.68 68.95 68.74 68.46 68.33 68.30 68.31 66.58 63.30 62.27 64.23 61.08 61.22 61.78 62.74 63.79 67.80 67.31 67.20 66.73 65.17 63.99 63.37 62.77 62.27 62.03 62.00 61.84 61.76 62.00 62.07
66.99 65.77 65.79 65.61 65.52 65.67 67.01 66.43 66.03 63.62 62.41 61.55 60.69 60.86 60.09 59.92 61.03 65.13 67.11 67.03 67.20 67.85 67.69 65.57 64.11 63.10 62.32 61.87 61.55 61.23 60.93 61.03 60.83
63.69 64.98 65.34 65.33 65.17 64.74 64.82 64.60 64.87 63.60 63.29 61.69 60.01 59.54 59.34 59.18 59.66 63.53 65.61 67.04 66.97 67.48 68.01 67.97 66.61 64.98 63.51 62.70 62.05 61.29 60.57 60.14 60.12
61.40 61.34 61.27 61.23 61.22 60.97 60.92 61.59 61.48 61.37 61.38 60.95 60.22 59.69 59.15 59.09 59.41 59.96 63.64 65.49 66.69 66.80 67.47 67.90 67.85 67.51 65.82 64.39 63.33 62.22 61.29 60.75 60.18
62.37 62.38 62.35 61.06 61.22 61.35 61.97 62.18 62.08 61.75 61.18 60.55 60.05 59.67 60.12 60.55 60.64 60.57 61.13 64.44 65.55 66.06 66.44 67.32 67.77 67.72 67.99 66.80 65.21 64.25 63.21 62.11 61.75
62.96 63.23 63.25 62.96 62.34 62.58 62.54 62.91 63.12 62.57 63.26 62.03 62.22 61.80 60.98 61.43 61.65 62.04 61.47 61.90 63.23 64.96 66.06 66.53 67.15 67.56 67.71 67.74 67.12 65.91 64.82 63.88 62.94
64.51 63.99 64.24 65.22 64.16 63.51 63.05 62.74 62.41 62.23 62.16 61.81 62.29 62.19 62.26 62.48 62.68 62.78 62.53 62.28 62.04 62.74 65.44 66.65 66.76 66.82 67.10 67.64 67.53 66.75 66.18 65.26 64.11
65.99 65.46 65.23 65.33 64.97 64.52 64.31 63.72 63.27 62.50 63.21 63.91 64.05 63.30 62.51 62.98 64.05 62.47 62.68 63.00 63.81 62.98 63.50 63.50 64.27 65.47 65.78 66.40 67.12 67.07 66.95 66.28 65.30
66.44 66.14 65.88 65.65 65.60 64.92 64.97 64.69 64.68 64.21 64.25 64.08 63.67 62.77 62.82 62.76 62.44 62.19 63.02 62.30 62.28 63.15 61.92 60.70 60.53 62.23 64.47 64.91 65.63 65.64 66.26 66.14 65.26
66.39 65.73 66.68 66.12 65.63 65.24 65.17 64.33 64.24 62.40 63.00 61.37 60.98 61.54 62.14 62.09 62.23 61.95 61.11 60.54 61.35 59.59 58.81 58.59 58.49 58.53 62.72 63.66 63.78 63.41 63.78 64.54 65.25
67.20 66.63 66.31 66.27 65.86 65.75 65.16 64.72 63.26 63.33 63.21 61.50 60.23 57.50 57.24 59.28 59.20 59.61 59.18 57.73 57.76 57.75 57.22 56.65 56.69 56.42 56.66 57.83 58.55 59.39 60.49 61.68 62.29
62.66 63.61 64.28 64.45 64.61 64.12 64.15 63.78 62.84 61.75 62.64 62.34 59.75 54.17 52.32 54.77 57.05 57.72 57.59 56.61 55.77 55.64 56.18 56.63 56.38 55.26 55.03 53.39 52.91 55.29 56.49 58.70 60.67
57.47 57.40 58.10 58.09 61.51 63.09 62.75 62.91 62.44 62.19 58.32 59.29 61.02 59.39 58.10 53.41 52.90 56.36 56.16 55.94 56.43 55.91 57.02 55.55 54.34 53.14 52.21 50.96 52.12 53.40 54.91 57.56 59.15
54.73 54.91 55.17 55.57 56.34 57.17 57.44 57.25 57.38 57.75 58.15 58.87 58.86 56.95 57.02 57.28 55.82 52.94 54.47 55.91 56.44 54.72 55.15 52.52 50.65 50.58 49.18 48.06 49.54 51.91 53.41 55.44 56.87
MSLP
1019.41 1019.61 1019.79 1019.85 1020.03 1020.14 1020.22 1020.40 1020.51 1020.58 1020.66 1020.63 1020.54 1020.58 1020.62 1020.77 1020.40 1020.61 1020.83 1021.02 1020.96 1020.94 1020.93 1020.95 1020.90 1020.84 1020.65 1020.68 1020.67 1020.72 1020.78 1020.82 1020.88
1019.69 1019.87 1020.03 1020.07 1020.20 1020.34 1020.46 1020.70 1020.81 1020.91 1020.92 1020.88 1020.85 1020.86 1020.73 1020.68 1020.71 1021.01 1021.17 1021.23 1021.23 1021.21 1021.18 1021.17 1021.18 1021.17 1021.13 1020.95 1021.01 1021.02 1021.04 1021.10 1021.15
1019.86 1020.02 1020.22 1020.29 1020.33 1020.56 1020.73 1020.91 1021.08 1021.15 1021.15 1021.13 1021.00 1020.90 1020.87 1020.68 1020.65 1021.07 1021.34 1021.42 1021.42 1021.41 1021.43 1021.40 1021.37 1021.32 1021.37 1021.35 1021.33 1021.30 1021.28 1021.32 1021.35
1019.91 1020.14 1020.31 1020.46 1020.60 1020.74 1021.03 1021.10 1021.28 1021.34 1021.38 1021.38 1021.30 1021.07 1020.92 1021.05 1020.80 1021.18 1021.43 1021.53 1021.53 1021.57 1021.55 1021.55 1021.56 1021.58 1021.56 1021.61 1021.60 1021.55 1021.51 1021.51 1021.53
1019.99 1020.24 1020.41 1020.62 1020.78 1020.93 1021.15 1021.29 1021.42 1021.41 1021.51 1021.46 1021.43 1021.29 1021.09 1021.17 1020.81 1021.20 1021.42 1021.60 1021.66 1021.74 1021.75 1021.75 1021.75 1021.73 1021.75 1021.80 1021.82 1021.75 1021.71 1021.71 1021.71
1019.96 1020.31 1020.55 1020.74 1020.90 1021.09 1021.21 1021.31 1021.47 1021.47 1021.50 1021.43 1021.36 1021.28 1021.20 1021.08 1020.82 1021.26 1021.36 1021.58 1021.67 1021.80 1021.86 1021.89 1021.88 1021.91 1021.91 1021.89 1021.92 1021.93 1021.83 1021.85 1021.90
1020.08 1020.43 1020.58 1020.83 1020.98 1021.14 1021.22 1021.27 1021.34 1021.36 1021.34 1021.40 1021.29 1021.19 1021.13 1020.75 1020.80 1021.17 1021.26 1021.49 1021.61 1021.68 1021.84 1021.91 1021.88 1021.89 1021.93 1021.96 1021.98 1022.04 1022.03 1022.06 1022.10
1020.03 1020.42 1020.57 1020.76 1020.90 1021.03 1021.09 1021.13 1021.10 1021.05 1021.02 1021.13 1021.09 1020.99 1020.74 1020.83 1020.78 1020.96 1021.09 1021.27 1021.44 1021.48 1021.54 1021.72 1021.79 1021.82 1021.86 1021.93 1022.00 1022.08 1022.12 1022.16 1022.18
1019.69 1019.97 1020.09 1020.25 1020.45 1020.40 1020.68 1020.87 1020.75 1020.56 1020.53 1020.68 1020.76 1020.69 1020.70 1020.75 1020.69 1020.86 1020.92 1021.03 1021.14 1021.25 1021.29 1021.34 1021.49 1021.63 1021.75 1021.84 1021.89 1021.98 1022.07 1022.16 1022.21
1019.37 1019.48 1019.67 1019.79 1019.90 1019.99 1020.17 1020.24 1020.26 1020.28 1020.29 1020.37 1020.41 1020.50 1020.52 1020.52 1020.51 1020.60 1020.71 1020.91 1020.94 1021.03 1021.05 1021.05 1021.04 1021.21 1021.41 1021.58 1021.69 1021.81 1021.95 1022.02 1022.04
1019.18 1019.34 1019.49 1019.66 1019.71 1019.89 1020.02 1020.11 1020.12 1020.19 1020.17 1020.22 1020.19 1020.26 1020.23 1020.21 1020.19 1020.25 1020.55 1020.69 1020.75 1020.79 1020.86 1020.84 1020.80 1020.81 1020.87 1021.07 1021.23 1021.34 1021.41 1021.64 1021.71
1019.09 1019.30 1019.45 1019.47 1019.53 1019.63 1019.75 1019.79 1019.87 1020.10 1020.04 1020.25 1020.05 1019.99 1019.93 1019.97 1019.92 1019.91 1020.01 1020.24 1020.38 1020.46 1020.49 1020.60 1020.65 1020.67 1020.63 1020.50 1020.67 1020.79 1020.98 1021.15 1021.31
1019.05 1019.30 1019.34 1019.27 1019.35 1019.49 1019.71 1019.86 1020.01 1020.08 1020.10 1020.08 1019.97 1019.80 1019.70 1019.63 1019.59 1019.57 1019.58 1019.66 1019.80 1020.00 1020.08 1020.23 1020.33 1020.43 1020.42 1020.33 1020.18 1020.37 1020.43 1020.66 1021.00
1018.84 1019.11 1019.19 1019.11 1019.28 1019.40 1019.66 1019.83 1019.90 1020.02 1019.96 1019.93 1019.76 1019.73 1019.73 1019.53 1019.29 1019.35 1019.29 1019.26 1019.19 1019.31 1019.40 1019.76 1020.05 1020.28 1020.29 1020.15 1020.00 1019.94 1019.92 1020.27 1020.53
1018.49 1018.72 1018.88 1018.95 1019.06 1019.39 1019.53 1019.65 1019.68 1019.77 1019.91 1019.90 1019.88 1019.79 1019.67 1019.34 1019.25 1019.13 1018.98 1018.99 1018.90 1018.99 1019.41 1019.73 1020.01 1020.12 1020.08 1020.02 1019.96 1019.88 1019.74 1019.82 1020.10
1018.15 1018.54 1018.59 1018.76 1019.10 1019.30 1019.51 1019.62 1019.78 1019.92 1019.89 1020.20 1020.09 1019.83 1019.50 1019.29 1019.05 1018.78 1018.86 1018.97 1019.11 1019.21 1019.48 1019.73 1019.99 1020.17 1020.14 1020.19 1020.18 1020.24 1020.25 1019.92 1019.71
1018.38 1018.66 1019.02 1019.13 1019.36 1019.48 1019.70 1019.91 1020.03 1019.99 1019.90 1020.20 1020.23 1019.91 1019.62 1019.08 1018.79 1018.76 1019.06 1019.15 1019.19 1019.47 1019.75 1019.95 1020.16 1020.38 1020.55 1020.72 1020.96 1020.81 1020.66 1020.43 1019.96
1018.97 1019.12 1019.29 1019.41 1019.51 1019.72 1019.84 1019.96 1020.18 1020.16 1019.93 1019.84 1020.15 1020.11 1020.00 1019.69 1019.33 1019.18 1019.27 1019.46 1019.67 1019.63 1019.78 1019.87 1020.44 1020.91 1020.97 1021.31 1021.48 1021.32 1021.01 1020.63 1020.21
1019.42 1019.49 1019.51 1019.67 1019.63 1019.79 1019.84 1019.89 1020.03 1020.12 1020.14 1020.07 1019.96 1020.02 1020.06 1020.06 1020.12 1019.66 1019.56 1019.59 1019.83 1019.87 1020.14 1020.46 1020.90 1021.21 1021.55 1021.85 1022.02 1021.82 1021.52 1021.13 1020.46
1019.73 1019.85 1019.90 1019.86 1019.94 1019.95 1020.04 1020.04 1020.13 1020.14 1020.19 1020.12 1020.11 1020.09 1020.02 1019.85 1020.14 1020.22 1019.97 1019.85 1019.77 1019.98 1020.26 1020.63 1021.19 1021.56 1021.97 1022.27 1022.26 1022.10 1021.76 1021.26 1020.68
Wind_Speed
15 14 14 14 13 13 13 13 12 11 10 8 4 5 6 5 6 8 10 6 11 12 12 13 13 14 16 15 13 13 13 14 14
14 14 13 13 13 12 12 11 11 10 9 7 6 7 10 5 6 7 7 6 11 11 12 12 11 12 13 14 13 13 12 13 13
13 13 12 12 12 11 10 10 9 9 8 7 8 9 10 7 6 7 6 7 9 10 10 11 11 11 10 10 11 11 11 10 10
13 12 11 11 10 9 8 8 7 7 6 5 6 9 10 6 2 8 4 6 7 8 8 9 9 10 10 9 9 9 9 8 9
12 10 9 9 9 8 6 5 4 4 3 2 2 6 10 5 3 4 4 5 5 6 6 7 8 9 9 9 9 8 8 7 8
8 9 9 8 7 6 5 4 3 2 4 5 5 7 4 6 1 3 9 5 3 3 4 4 6 7 7 7 7 7 7 7 7
8 7 9 7 7 6 6 6 5 6 4 3 7 3 5 2 0 3 9 6 2 2 1 2 3 3 4 4 5 5 6 6 6
5 4 4 4 6 4 5 5 4 6 4 4 4 5 2 3 2 6 9 7 5 5 5 4 2 1 1 1 2 4 4 4 5
4 4 5 5 4 6 6 4 6 6 4 5 5 3 2 2 2 5 9 8 7 7 7 7 7 5 4 3 1 1 1 2 2
3 3 3 3 3 1 2 3 3 3 5 4 5 5 5 5 3 3 10 9 8 8 9 9 9 9 7 6 4 3 2 2 2
2 2 2 2 3 2 3 3 3 3 3 4 4 5 4 5 4 3 5 10 10 10 11 12 12 11 11 10 9 9 8 6 6
4 2 3 4 3 5 3 2 1 2 3 4 4 4 5 3 4 4 4 6 10 11 12 12 13 13 13 13 12 12 12 11 10
4 3 2 3 3 3 2 3 3 3 3 3 4 3 3 5 6 5 4 4 5 9 12 12 13 13 14 15 15 13 14 14 12
4 3 4 4 3 3 3 3 3 3 3 3 3 3 3 5 4 5 5 6 5 5 10 12 10 9 12 15 16 16 13 11 14
5 4 4 3 3 3 3 4 3 2 3 3 3 4 4 4 5 5 4 4 5 3 5 2 3 9 12 12 13 14 16 14 12
5 2 4 2 2 3 3 2 2 2 2 2 3 4 6 6 6 5 4 3 4 5 4 3 2 3 6 7 8 9 11 13 15
4 4 3 4 3 4 3 3 2 2 1 2 2 3 4 4 3 2 3 4 4 5 5 4 4 4 4 10 18 15 13 12 12
6 4 3 3 2 2 2 2 3 4 2 5 4 2 3 2 3 3 3 4 3 1 2 2 6 7 7 10 10 16 14 13 13
6 5 4 4 2 3 2 2 3 3 4 2 3 3 3 2 3 2 1 2 1 2 5 8 8 7 7 11 15 16 15 14 13
5 4 4 3 3 3 3 3 3 3 3 3 3 2 3 4 4 4 3 2 1 4 5 6 6 7 7 6 8 14 14 13 12
Wind_Direction
98 100 104 102 99 94 86 81 79 86 89 86 67 23 348 344 89 76 65 47 57 59 56 48 48 48 50 59 65 68 67 64 58
108 108 108 106 101 93 85 81 77 82 79 69 50 22 342 315 105 78 72 55 58 59 57 52 50 49 49 56 57 61 61 61 54
113 110 110 109 104 97 90 83 77 79 77 48 20 8 1 3 70 99 81 67 62 62 58 55 55 55 51 48 47 45 49 53 47
121 116 113 110 109 104 99 91 86 80 75 54 12 347 336 359 45 110 95 78 69 65 62 58 55 52 52 48 45 42 38 31 34
130 122 117 118 117 117 114 108 100 95 98 84 354 317 314 295 198 111 110 99 79 68 62 58 54 53 51 49 46 42 40 35 40
142 124 128 129 129 133 136 138 150 190 217 207 228 263 272 264 118 121 130 130 115 88 74 65 57 55 54 53 49 45 48 48 50
128 131 139 145 149 161 173 182 205 234 231 222 232 247 262 310 109 145 147 151 207 195 161 94 71 65 58 51 49 46 44 45 46
144 147 158 170 191 189 197 201 214 228 228 169 222 221 13 301 293 154 160 166 214 252 221 215 216 205 139 70 52 46 37 37 36
191 167 181 182 186 204 191 192 217 205 207 223 250 285 212 260 283 170 170 180 208 241 255 233 229 234 230 222 205 132 52 16 22
187 182 164 179 185 176 206 202 252 223 232 228 211 233 250 239 237 163 178 195 206 233 248 254 249 234 233 231 218 217 248 257 269
151 159 176 171 166 220 208 227 213 246 235 248 249 244 238 244 235 211 185 196 213 221 242 251 255 258 242 229 223 218 208 222 229
154 221 187 194 198 208 220 255 297 295 288 271 260 252 247 258 259 236 201 195 208 218 233 246 256 261 262 256 238 231 229 233 224
182 199 239 231 190 181 218 231 245 237 238 250 260 263 249 249 255 250 232 209 197 215 224 234 246 254 262 262 259 249 230 230 230
183 205 220 219 208 201 203 241 215 242 266 271 268 280 271 273 273 270 263 244 215 207 197 221 235 254 262 270 275 273 261 239 235
178 207 229 239 214 213 234 246 264 249 266 284 302 297 275 263 255 254 272 294 292 119 99 133 239 245 252 265 278 289 286 288 263
169 196 267 288 273 290 289 289 314 323 330 342 290 266 257 261 245 233 236 296 67 78 70 38 11 13 263 303 321 342 327 314 305
48 47 41 36 12 359 349 355 310 287 296 262 307 278 321 279 303 131 109 71 67 51 64 48 47 45 47 46 46 33 13 351 332
45 41 35 13 1 304 307 321 297 280 281 229 205 300 234 357 349 37 45 81 88 116 147 143 52 47 55 52 28 18 4 347 335
42 27 31 14 321 277 288 312 264 268 259 317 248 258 223 200 301 354 27 101 62 341 79 84 68 55 58 42 24 12 359 349 345
62 37 19 18 15 357 347 326 312 298 279 265 280 258 269 222 195 255 276 22 112 62 86 88 78 54 65 43 17 14 359 349 344